| time (UTC) | temp F | wind direction | speed MPH | gust MPH | rain 1hr in | rain 24hr in | rain mn in | humidity % | barometer mb |
| 20260901133017 | 58 | 0.0 | 2.0 | 0.00 | 0.02 | 0.02 | 80 | 1016.5 | |
| 20260901132017 | 58 | 0.0 | 0.0 | 0.00 | 0.02 | 0.02 | 80 | 1016.3 | |
| 20260901131017 | 58 | 0.0 | 2.0 | 0.00 | 0.02 | 0.02 | 80 | 1016.4 | |
| 20260901130017 | 58 | 0.0 | 2.0 | 0.00 | 0.02 | 0.02 | 77 | 1016.4 | |
| 20260901125017 | 58 | 0.0 | 0.0 | 0.02 | 0.02 | 0.02 | 78 | 1016.6 | |
| 20260901124017 | 57 | 0.0 | 2.0 | 0.02 | 0.02 | 0.02 | 79 | 1016.7 | |
| 20260901123017 | 57 | 0.0 | 1.0 | 0.02 | 0.02 | 0.02 | 76 | 1016.9 | |
| 20260901122017 | 57 | 0 | 1.0 | 3.0 | 0.02 | 0.02 | 0.02 | 77 | 1017.2 |
| 20260901121017 | 57 | 0.0 | 2.0 | 0.02 | 0.02 | 0.02 | 77 | 1017.0 | |
| 20260901120017 | 57 | 23 | 2.0 | 10.0 | 0.02 | 0.02 | 0.02 | 75 | 1017.3 |
| 20260901115017 | 56 | 0.0 | 2.0 | 0.00 | 0.00 | 0.00 | 69 | 1017.1 | |
| 20260901114017 | 56 | 0.0 | 2.0 | 0.00 | 0.00 | 0.00 | 70 | 1017.2 | |
| 20260901113017 | 57 | 0.0 | 2.0 | 0.00 | 0.00 | 0.00 | 69 | 1017.2 | |
| 20260901112017 | 57 | 0.0 | 0.0 | 0.00 | 0.00 | 0.00 | 69 | 1017.2 | |
| 20260901111017 | 57 | 0.0 | 2.0 | 0.00 | 0.00 | 0.00 | 68 | 1017.2 | |
| 20260901110017 | 57 | 0.0 | 1.0 | 0.00 | 0.00 | 0.00 | 67 | 1017.4 | |
| 20260901105017 | 57 | 0.0 | 2.0 | 0.00 | 0.00 | 0.00 | 67 | 1017.6 | |
| 20260901104017 | 57 | 0.0 | 2.0 | 0.00 | 0.00 | 0.00 | 66 | 1017.5 | |
| 20260901103017 | 57 | 0.0 | 1.0 | 0.00 | 0.00 | 0.00 | 65 | 1017.4 | |
| 20260901102019 | 58 | 0.0 | 1.0 | 0.00 | 0.00 | 0.00 | 64 | 1017.4 | |
| 20260901101019 | 58 | 0.0 | 2.0 | 0.00 | 0.00 | 0.00 | 63 | 1017.3 | |
| 20260901100019 | 59 | 0.0 | 2.0 | 0.00 | 0.00 | 0.00 | 62 | 1017.2 | |
| 20260901095019 | 60 | 0.0 | 2.0 | 0.00 | 0.00 | 0.00 | 60 | 1017.3 | |
| 20260901094019 | 60 | 0.0 | 1.0 | 0.00 | 0.00 | 0.00 | 60 | 1017.4 | |
| 20260901093019 | 61 | 0.0 | 2.0 | 0.00 | 0.00 | 0.00 | 58 | 1017.4 | |
| 20260901092019 | 62 | 0.0 | 2.0 | 0.00 | 0.00 | 0.00 | 56 | 1017.2 | |
| 20260901091018 | 62 | 0.0 | 2.0 | 0.00 | 0.00 | 0.00 | 54 | 1017.2 | |
| 20260901090018 | 64 | 0.0 | 1.0 | 0.00 | 0.00 | 0.00 | 52 | 1017.4 | |
| 20260901085018 | 66 | 0.0 | 2.0 | 0.00 | 0.00 | 0.00 | 48 | 1017.4 | |
| 20260901084018 | 67 | 0.0 | 2.0 | 0.00 | 0.00 | 0.00 | 47 | 1017.4 | |
| 20260901083018 | 68 | 0.0 | 1.0 | 0.00 | 0.00 | 0.00 | 46 | 1017.5 | |
| 20260901082018 | 69 | 0.0 | 2.0 | 0.00 | 0.00 | 0.00 | 42 | 1017.4 | |
| 20260901081018 | 70 | 0.0 | 1.0 | 0.00 | 0.00 | 0.00 | 41 | 1017.2 | |
| 20260901080018 | 71 | 0.0 | 2.0 | 0.00 | 0.00 | 0.00 | 39 | 1017.3 | |
| 20260901075018 | 73 | 315 | 1.0 | 2.0 | 0.00 | 0.00 | 0.00 | 38 | 1017.5 |
| 20260901074018 | 73 | 293 | 2.0 | 4.0 | 0.00 | 0.00 | 0.00 | 36 | 1017.6 |
| 20260901073018 | 74 | 315 | 2.0 | 3.0 | 0.00 | 0.00 | 0.00 | 35 | 1017.7 |
| 20260901072018 | 74 | 293 | 4.0 | 10.0 | 0.00 | 0.00 | 0.00 | 35 | 1017.7 |
| 20260901071018 | 75 | 293 | 3.0 | 9.0 | 0.00 | 0.00 | 0.00 | 34 | 1017.9 |
| 20260901070018 | 75 | 293 | 5.0 | 11.0 | 0.00 | 0.00 | 0.00 | 34 | 1017.8 |
| 20260901065018 | 75 | 293 | 6.0 | 11.0 | 0.00 | 0.00 | 0.00 | 32 | 1017.9 |
| 20260901064018 | 76 | 293 | 5.0 | 10.0 | 0.00 | 0.00 | 0.00 | 33 | 1018.0 |
| 20260901063018 | 76 | 293 | 5.0 | 10.0 | 0.00 | 0.00 | 0.00 | 33 | 1017.9 |
| 20260901062018 | 76 | 293 | 5.0 | 9.0 | 0.00 | 0.00 | 0.00 | 33 | 1018.1 |
| 20260901061018 | 76 | 293 | 4.0 | 11.0 | 0.00 | 0.00 | 0.00 | 32 | 1018.2 |
| 20260901060018 | 76 | 270 | 5.0 | 11.0 | 0.00 | 0.00 | 0.00 | 33 | 1018.4 |
| 20260901055018 | 76 | 293 | 6.0 | 14.0 | 0.00 | 0.00 | 0.00 | 33 | 1018.4 |
| 20260901054018 | 76 | 270 | 5.0 | 13.0 | 0.00 | 0.00 | 0.00 | 32 | 1018.5 |
| 20260901053018 | 77 | 270 | 5.0 | 12.0 | 0.00 | 0.00 | 0.00 | 33 | 1018.7 |
| 20260901052018 | 77 | 248 | 6.0 | 12.0 | 0.00 | 0.00 | 0.00 | 32 | 1018.8 |
| 20260901051018 | 77 | 270 | 7.0 | 11.0 | 0.00 | 0.00 | 0.00 | 31 | 1019.0 |
| 20260901050018 | 77 | 293 | 3.0 | 7.0 | 0.00 | 0.00 | 0.00 | 32 | 1019.0 |
| 20260901045018 | 77 | 293 | 5.0 | 14.0 | 0.00 | 0.00 | 0.00 | 32 | 1019.2 |
| 20260901044018 | 76 | 270 | 6.0 | 13.0 | 0.00 | 0.00 | 0.00 | 32 | 1019.4 |
| 20260901043018 | 77 | 270 | 8.0 | 14.0 | 0.00 | 0.00 | 0.00 | 32 | 1019.6 |
| 20260901042018 | 77 | 270 | 7.0 | 15.0 | 0.00 | 0.00 | 0.00 | 32 | 1019.8 |
| 20260901041018 | 77 | 293 | 5.0 | 12.0 | 0.00 | 0.00 | 0.00 | 32 | 1019.9 |
| 20260901040018 | 76 | 270 | 4.0 | 10.0 | 0.00 | 0.00 | 0.00 | 33 | 1020.1 |
| 20260901035018 | 76 | 270 | 8.0 | 19.0 | 0.00 | 0.00 | 0.00 | 32 | 1020.1 |
| 20260901034018 | 76 | 270 | 6.0 | 11.0 | 0.00 | 0.00 | 0.00 | 33 | 1020.3 |
| 20260901033018 | 76 | 248 | 7.0 | 13.0 | 0.00 | 0.00 | 0.00 | 32 | 1020.4 |
| 20260901032018 | 76 | 248 | 7.0 | 14.0 | 0.00 | 0.00 | 0.00 | 32 | 1020.7 |
| 20260901031018 | 76 | 270 | 8.0 | 14.0 | 0.00 | 0.00 | 0.00 | 33 | 1021.0 |
| 20260901030018 | 76 | 248 | 8.0 | 15.0 | 0.00 | 0.00 | 0.00 | 32 | 1021.2 |
| 20260901025017 | 76 | 270 | 7.0 | 12.0 | 0.00 | 0.00 | 0.00 | 32 | 1021.4 |
| 20260901024017 | 76 | 293 | 7.0 | 14.0 | 0.00 | 0.00 | 0.00 | 31 | 1021.4 |
| 20260901023018 | 76 | 293 | 8.0 | 14.0 | 0.00 | 0.00 | 0.00 | 32 | 1021.7 |
| 20260901022017 | 76 | 315 | 8.0 | 15.0 | 0.00 | 0.00 | 0.00 | 32 | 1021.9 |
| 20260901021018 | 76 | 315 | 7.0 | 17.0 | 0.00 | 0.00 | 0.00 | 33 | 1022.1 |
| 20260901020017 | 75 | 293 | 5.0 | 9.0 | 0.00 | 0.00 | 0.00 | 39 | 1022.2 |
| 20260901015017 | 76 | 315 | 6.0 | 16.0 | 0.00 | 0.00 | 0.00 | 37 | 1022.3 |
| 20260901014017 | 76 | 293 | 6.0 | 11.0 | 0.00 | 0.00 | 0.00 | 37 | 1022.5 |
| 20260901013017 | 75 | 315 | 5.0 | 10.0 | 0.00 | 0.00 | 0.00 | 39 | 1022.8 |
| 20260901012017 | 75 | 315 | 4.0 | 9.0 | 0.00 | 0.00 | 0.00 | 40 | 1022.9 |
| 20260901011017 | 74 | 315 | 4.0 | 10.0 | 0.00 | 0.00 | 0.00 | 42 | 1023.3 |
| 20260901010017 | 74 | 315 | 4.0 | 8.0 | 0.00 | 0.00 | 0.00 | 43 | 1023.5 |
| 20260901005017 | 73 | 293 | 5.0 | 12.0 | 0.00 | 0.00 | 0.00 | 44 | 1023.7 |
| 20260901004017 | 73 | 315 | 5.0 | 10.0 | 0.00 | 0.00 | 0.00 | 44 | 1023.9 |
| 20260901003017 | 72 | 293 | 5.0 | 9.0 | 0.00 | 0.00 | 0.00 | 46 | 1023.9 |
| 20260901002017 | 72 | 315 | 4.0 | 10.0 | 0.00 | 0.00 | 0.00 | 47 | 1024.0 |
| 20260901001017 | 71 | 315 | 4.0 | 9.0 | 0.00 | 0.00 | 0.00 | 48 | 1024.1 |
| 20260901000017 | 70 | 315 | 4.0 | 10.0 | 0.00 | 0.00 | 0.00 | 49 | 1024.2 |
| 20260831235017 | 69 | 293 | 4.0 | 9.0 | 0.00 | 0.00 | 0.00 | 51 | 1024.3 |
| 20260831234017 | 68 | 293 | 3.0 | 8.0 | 0.00 | 0.00 | 0.00 | 55 | 1024.3 |
| 20260831233017 | 67 | 315 | 3.0 | 6.0 | 0.00 | 0.00 | 0.00 | 59 | 1024.3 |
| 20260831232017 | 64 | 315 | 3.0 | 6.0 | 0.00 | 0.00 | 0.00 | 68 | 1024.5 |
| 20260831231017 | 61 | 45 | 2.0 | 3.0 | 0.00 | 0.00 | 0.00 | 77 | 1024.6 |
| 20260831230027 | 59 | 23 | 1.0 | 2.0 | 0.00 | 0.00 | 0.00 | 80 | 1024.8 |
| 20260831225017 | 56 | 23 | 1.0 | 2.0 | 0.00 | 0.00 | 0.00 | 84 | 1024.9 |
| 20260831224019 | 54 | 45 | 1.0 | 3.0 | 0.00 | 0.00 | 0.00 | 85 | 1024.9 |
| 20260831223019 | 52 | 23 | 1.0 | 2.0 | 0.00 | 0.00 | 0.00 | 88 | 1025.0 |
| 20260831222017 | 51 | 23 | 1.0 | 2.0 | 0.00 | 0.00 | 0.00 | 91 | 1024.9 |
| 20260831221017 | 49 | 45 | 1.0 | 3.0 | 0.00 | 0.00 | 0.00 | 91 | 1024.9 |
| 20260831220018 | 47 | 45 | 2.0 | 3.0 | 0.00 | 0.00 | 0.00 | 92 | 1024.8 |
| 20260831215017 | 45 | 45 | 2.0 | 3.0 | 0.00 | 0.00 | 0.00 | 93 | 1024.8 |
| 20260831214020 | 43 | 45 | 2.0 | 3.0 | 0.00 | 0.00 | 0.00 | 92 | 1024.9 |
| 20260831213017 | 42 | 23 | 1.0 | 2.0 | 0.00 | 0.00 | 0.00 | 91 | 1025.0 |
| 20260831212017 | 41 | 0.0 | 2.0 | 0.00 | 0.00 | 0.00 | 91 | 1025.0 | |
| 20260831211017 | 41 | 0.0 | 2.0 | 0.00 | 0.00 | 0.00 | 91 | 1025.0 | |
| 20260831210017 | 41 | 0 | 1.0 | 2.0 | 0.00 | 0.01 | 0.00 | 91 | 1025.0 |
| 20260831205017 | 40 | 45 | 2.0 | 3.0 | 0.00 | 0.01 | 0.00 | 91 | 1024.8 |
| 20260831204017 | 40 | 0 | 2.0 | 3.0 | 0.00 | 0.01 | 0.00 | 90 | 1024.8 |
| 20260831203019 | 40 | 45 | 2.0 | 4.0 | 0.00 | 0.01 | 0.00 | 90 | 1024.7 |
| 20260831202019 | 40 | 45 | 1.0 | 2.0 | 0.00 | 0.01 | 0.00 | 90 | 1024.6 |
| 20260831201018 | 40 | 68 | 1.0 | 1.0 | 0.00 | 0.01 | 0.00 | 90 | 1024.7 |
| 20260831200018 | 40 | 0.0 | 2.0 | 0.00 | 0.01 | 0.00 | 90 | 1024.8 | |
| 20260831195018 | 40 | 0.0 | 2.0 | 0.00 | 0.01 | 0.00 | 89 | 1024.8 | |
| 20260831194018 | 40 | 0.0 | 2.0 | 0.00 | 0.01 | 0.00 | 89 | 1025.0 | |
| 20260831193018 | 41 | 0.0 | 0.0 | 0.00 | 0.01 | 0.00 | 89 | 1025.1 | |
| 20260831192018 | 41 | 0.0 | 0.0 | 0.00 | 0.01 | 0.00 | 89 | 1025.2 | |
| 20260831191019 | 41 | 0.0 | 2.0 | 0.00 | 0.01 | 0.00 | 89 | 1025.3 | |
| 20260831190018 | 41 | 45 | 1.0 | 1.0 | 0.00 | 0.01 | 0.00 | 89 | 1025.0 |
| 20260831185018 | 41 | 23 | 1.0 | 2.0 | 0.00 | 0.01 | 0.00 | 89 | 1025.2 |
| 20260831184018 | 41 | 0.0 | 2.0 | 0.00 | 0.01 | 0.00 | 89 | 1025.2 | |
| 20260831183018 | 42 | 68 | 1.0 | 2.0 | 0.00 | 0.01 | 0.00 | 89 | 1025.2 |
| 20260831182018 | 42 | 23 | 1.0 | 3.0 | 0.00 | 0.01 | 0.00 | 89 | 1025.3 |
| 20260831181018 | 42 | 45 | 1.0 | 2.0 | 0.00 | 0.01 | 0.00 | 89 | 1025.3 |
| 20260831180018 | 42 | 45 | 1.0 | 2.0 | 0.00 | 0.01 | 0.00 | 88 | 1025.2 |
| 20260831175018 | 42 | 23 | 1.0 | 2.0 | 0.00 | 0.01 | 0.00 | 88 | 1025.4 |
| 20260831174018 | 42 | 0.0 | 2.0 | 0.00 | 0.01 | 0.00 | 87 | 1025.4 | |
| 20260831173018 | 43 | 0.0 | 2.0 | 0.00 | 0.01 | 0.00 | 87 | 1025.5 | |
| 20260831172018 | 43 | 0.0 | 2.0 | 0.00 | 0.01 | 0.00 | 87 | 1025.6 | |
| 20260831171018 | 43 | 0.0 | 2.0 | 0.00 | 0.01 | 0.00 | 87 | 1025.5 | |
| 20260831170018 | 43 | 23 | 1.0 | 2.0 | 0.00 | 0.01 | 0.00 | 87 | 1025.6 |
| 20260831165018 | 43 | 23 | 1.0 | 2.0 | 0.00 | 0.01 | 0.00 | 87 | 1025.7 |
| 20260831164018 | 43 | 0 | 1.0 | 2.0 | 0.00 | 0.01 | 0.00 | 87 | 1025.8 |
| 20260831163018 | 43 | 0.0 | 1.0 | 0.00 | 0.01 | 0.00 | 87 | 1026.0 | |
| 20260831162018 | 43 | 0.0 | 1.0 | 0.00 | 0.01 | 0.00 | 86 | 1026.1 | |
| 20260831161018 | 43 | 0.0 | 2.0 | 0.00 | 0.01 | 0.00 | 85 | 1026.1 | |
| 20260831160018 | 44 | 0.0 | 0.0 | 0.00 | 0.01 | 0.00 | 84 | 1026.2 | |
| 20260831155018 | 44 | 45 | 1.0 | 3.0 | 0.00 | 0.01 | 0.00 | 84 | 1026.4 |
| 20260831154018 | 45 | 45 | 1.0 | 3.0 | 0.00 | 0.01 | 0.00 | 85 | 1026.5 |
| 20260831153018 | 45 | 23 | 1.0 | 2.0 | 0.00 | 0.01 | 0.00 | 84 | 1026.6 |
| 20260831152018 | 45 | 0.0 | 2.0 | 0.00 | 0.01 | 0.00 | 84 | 1026.7 | |
| 20260831151018 | 45 | 0.0 | 2.0 | 0.00 | 0.01 | 0.00 | 84 | 1026.8 | |
| 20260831150018 | 45 | 0.0 | 1.0 | 0.00 | 0.01 | 0.00 | 82 | 1026.9 | |
| 20260831145018 | 46 | 0.0 | 2.0 | 0.00 | 0.01 | 0.00 | 82 | 1027.0 | |
| 20260831144018 | 46 | 0 | 1.0 | 2.0 | 0.00 | 0.01 | 0.00 | 82 | 1027.0 |
| 20260831143018 | 46 | 0 | 2.0 | 2.0 | 0.00 | 0.01 | 0.00 | 81 | 1026.9 |
| 20260831142017 | 46 | 0 | 1.0 | 2.0 | 0.00 | 0.01 | 0.00 | 80 | 1026.9 |
| 20260831141018 | 47 | 45 | 1.0 | 2.0 | 0.00 | 0.01 | 0.00 | 79 | 1026.9 |
| 20260831140026 | 47 | 45 | 1.0 | 2.0 | 0.00 | 0.01 | 0.01 | 78 | 1027.0 |
| 20260831135017 | 48 | 68 | 1.0 | 2.0 | 0.00 | 0.01 | 0.01 | 77 | 1027.0 |
| 20260831134018 | 48 | 68 | 1.0 | 2.0 | 0.00 | 0.01 | 0.01 | 77 | 1027.1 |